Date String (YYYY-MM-DD hh:mm:ss) UTC,Instrument flags,Ambient pressure (hPa),Sample flow (lpm),Bypass flow (lpm),Sample temperature (°C),Ambient temperature (°C),ASC tube jacket temperature (°C),LED temperature (°C),Box temperature (°C),Sample RH (%),Span deviation,Mass concentration (μg/m³),Mass concentration (μg/m³),Mass concentration (μg/m³)
DateTimeUTC,F1_M11,P_M11,Q1_M11,Q2_M11,T1_M11,T2_M11,T3_M11,T4_M11,T5_M11,U1_M11,ZSPAN_M11,X0_M11,X2_M11,X1_M11
2021-12-12 13:00:00,,0819.5,5.00,0.00,22.2,21.6,00.0,31.3,23.9,09.2,0000.0,0007.66,0003.25,0002.29
2021-12-12 13:01:00,,0819.5,5.00,0.00,22.2,21.5,00.0,31.3,23.9,09.3,0000.0,0007.98,0003.23,0002.26
2021-12-12 13:02:00,,0819.4,5.00,0.00,22.2,21.5,00.0,31.3,23.9,09.2,0000.0,0008.14,0003.23,0002.24
2021-12-12 13:03:00,,0819.3,5.00,0.00,22.2,21.5,00.0,31.3,23.9,09.2,0000.0,0008.15,0003.25,0002.22
2021-12-12 13:04:00,,0819.3,4.99,0.00,22.2,21.6,00.0,31.3,24.0,09.2,0000.0,0007.94,0003.23,0002.22
2021-12-12 13:05:00,,0819.3,5.01,0.00,22.2,21.6,00.0,31.3,24.0,09.2,0000.0,0007.89,0003.25,0002.23
2021-12-12 13:06:00,,0819.3,5.00,0.00,22.3,21.6,00.0,31.3,24.0,09.2,0000.0,0008.06,0003.28,0002.25
2021-12-12 13:07:00,,0819.5,5.00,0.00,22.3,21.6,00.0,31.3,24.0,09.2,0000.0,0008.03,0003.27,0002.26
2021-12-12 13:08:00,,0819.6,5.00,0.00,22.3,21.6,00.0,31.3,24.0,09.2,0000.0,0007.83,0003.28,0002.26
2021-12-12 13:09:00,,0819.6,5.01,0.00,22.3,21.6,00.0,31.3,24.1,09.1,0000.0,0008.09,0003.29,0002.28
2021-12-12 13:10:00,,0819.6,5.00,0.00,22.3,21.6,00.0,31.3,24.1,09.0,0000.0,0008.38,0003.34,0002.32
2021-12-12 13:11:00,,0819.7,4.99,0.00,22.3,21.6,00.0,31.3,24.0,08.9,0000.0,0008.16,0003.34,0002.34
2021-12-12 13:12:00,,0819.7,5.01,0.00,22.3,21.6,00.0,31.3,24.0,08.9,0000.0,0007.84,0003.36,0002.38
2021-12-12 13:13:00,,0819.8,4.98,0.00,22.3,21.6,00.0,31.3,24.0,08.8,0000.0,0007.82,0003.40,0002.43
2021-12-12 13:14:00,,0819.8,5.00,0.00,22.3,21.6,00.0,31.3,24.0,08.7,0000.0,0007.99,0003.41,0002.47
2021-12-12 13:15:00,,0819.6,5.01,0.00,22.3,21.6,00.0,31.3,24.0,08.8,0000.0,0008.42,0003.47,0002.52
2021-12-12 13:16:00,,0819.7,4.99,0.00,22.3,21.6,00.0,31.3,24.0,08.8,0000.0,0008.62,0003.54,0002.56
2021-12-12 13:17:00,,0819.7,5.00,0.00,22.3,21.6,00.0,31.3,24.1,08.8,0000.0,0008.52,0003.55,0002.60
2021-12-12 13:18:00,,0819.5,5.00,0.00,22.3,21.6,00.0,31.3,24.1,08.7,0000.0,0008.60,0003.59,0002.66
2021-12-12 13:19:00,,0819.5,5.01,0.00,22.3,21.6,00.0,31.3,24.1,08.7,0000.0,0008.58,0003.63,0002.73
2021-12-12 13:20:00,,0819.6,5.01,0.00,22.3,21.6,00.0,31.3,24.1,08.6,0000.0,0008.73,0003.66,0002.78
2021-12-12 13:21:00,,0819.6,4.99,0.00,22.3,21.6,00.0,31.3,24.1,08.6,0000.0,0008.48,0003.68,0002.84
2021-12-12 13:22:00,,0819.6,4.99,0.00,22.3,21.6,00.0,31.3,24.1,08.6,0000.0,0008.62,0003.72,0002.89
2021-12-12 13:23:00,,0819.6,5.00,0.00,22.3,21.6,00.0,31.3,24.1,08.6,0000.0,0009.17,0003.76,0002.93
2021-12-12 13:24:00,,0819.6,5.01,0.00,22.3,21.6,00.0,31.3,24.1,08.5,0000.0,0009.52,0003.78,0002.97
2021-12-12 13:25:00,,0819.5,4.99,0.00,22.3,21.6,00.0,31.3,24.1,08.5,0000.0,0010.14,0003.86,0003.03
2021-12-12 13:26:00,,0819.4,5.00,0.00,22.3,21.6,00.0,31.3,24.1,08.5,0000.0,0010.05,0003.96,0003.09
2021-12-12 13:27:00,,0819.3,5.00,0.00,22.3,21.6,00.0,31.3,24.1,08.5,0000.0,0010.51,0003.97,0003.13
2021-12-12 13:28:00,,0819.3,4.99,0.00,22.4,21.6,00.0,31.3,24.1,08.6,0000.0,0011.34,0004.03,0003.15
2021-12-12 13:29:00,,0819.5,5.01,0.00,22.4,21.6,00.0,31.3,24.1,08.6,0000.0,0011.61,0004.07,0003.15
2021-12-12 13:30:00,,0819.5,4.98,0.00,22.4,21.7,00.0,31.3,24.1,08.5,0000.0,0012.08,0004.14,0003.19
2021-12-12 13:31:00,,0819.6,5.02,0.00,22.4,22.3,00.0,31.4,24.3,08.5,0000.0,0011.94,0004.20,0003.21
2021-12-12 13:32:00,,0819.7,5.00,0.00,22.6,23.0,00.0,31.4,24.5,08.4,0000.0,0012.11,0004.24,0003.23
2021-12-12 13:33:00,,0819.6,4.99,0.00,22.7,23.1,00.0,31.4,24.7,08.3,0000.0,0012.18,0004.30,0003.25
2021-12-12 13:34:00,,0819.6,5.00,0.00,22.7,22.9,00.0,31.5,24.6,08.4,0000.0,0012.26,0004.29,0003.25
2021-12-12 13:35:00,,0819.6,5.02,0.00,22.7,22.8,00.0,31.5,24.6,08.4,0000.0,0012.04,0004.27,0003.25
2021-12-12 13:36:00,,0819.5,4.98,0.00,22.7,22.6,00.0,31.5,24.5,08.3,0000.0,0011.60,0004.23,0003.25
2021-12-12 13:37:00,,0819.4,5.01,0.00,22.7,22.5,00.0,31.5,24.5,08.7,0000.0,0011.29,0004.15,0003.22
2021-12-12 13:38:00,,0819.4,5.00,0.00,22.7,22.4,00.0,31.5,24.5,08.9,0000.0,0010.74,0004.10,0003.16
2021-12-12 13:39:00,,0819.4,5.00,0.00,22.7,22.3,00.0,31.5,24.5,09.0,0000.0,0009.78,0004.01,0003.11
2021-12-12 13:40:00,,0819.4,5.00,0.00,22.7,22.2,00.0,31.5,24.5,09.0,0000.0,0009.28,0003.93,0003.04
2021-12-12 13:41:00,,0819.4,5.01,0.00,22.7,22.2,00.0,31.6,24.5,09.0,0000.0,0008.76,0003.81,0002.91
2021-12-12 13:42:00,,0819.4,5.00,0.00,22.7,22.1,00.0,31.6,24.5,09.2,0000.0,0008.50,0003.70,0002.76
2021-12-12 13:43:00,,0819.4,5.00,0.00,22.7,22.1,00.0,31.6,24.5,09.2,0000.0,0008.21,0003.56,0002.58
2021-12-12 13:44:00,,0819.4,5.01,0.00,22.7,22.1,00.0,31.6,24.5,09.3,0000.0,0007.90,0003.37,0002.39
2021-12-12 13:45:00,,0819.4,4.99,0.00,22.7,22.1,00.0,31.6,24.5,09.3,0000.0,0006.96,0003.24,0002.24
2021-12-12 13:46:00,,0819.4,5.01,0.00,22.7,22.0,00.0,31.6,24.5,09.0,0000.0,0006.37,0003.17,0002.14
2021-12-12 13:47:00,,0819.5,5.00,0.00,22.7,22.0,00.0,31.6,24.4,08.8,0000.0,0006.62,0003.11,0002.06
2021-12-12 13:48:00,,0819.5,5.01,0.00,22.6,22.0,00.0,31.6,24.4,08.9,0000.0,0006.61,0003.07,0002.01
2021-12-12 13:49:00,,0819.4,4.99,0.00,22.6,22.0,00.0,31.6,24.4,08.8,0000.0,0006.55,0003.04,0002.02
2021-12-12 13:50:00,,0819.5,5.01,0.00,22.6,22.0,00.0,31.6,24.4,08.6,0000.0,0007.01,0003.15,0002.08
2021-12-12 13:51:00,,0819.5,5.00,0.00,22.6,22.0,00.0,31.6,24.4,08.5,0000.0,0007.50,0003.23,0002.18
2021-12-12 13:52:00,,0819.5,4.99,0.00,22.6,21.9,00.0,31.6,24.3,08.6,0000.0,0008.06,0003.31,0002.27
2021-12-12 13:53:00,,0819.4,5.01,0.00,22.6,21.9,00.0,31.6,24.3,08.9,0000.0,0008.33,0003.32,0002.29
2021-12-12 13:54:00,,0819.4,4.99,0.00,22.6,21.9,00.0,31.6,24.3,09.0,0000.0,0009.24,0003.33,0002.33
2021-12-12 13:55:00,,0819.4,5.00,0.00,22.6,21.9,00.0,31.6,24.3,09.2,0000.0,0009.24,0003.34,0002.32
2021-12-12 13:56:00,,0819.4,5.01,0.00,22.6,21.9,00.0,31.6,24.3,08.8,0000.0,0009.20,0003.41,0002.39
2021-12-12 13:57:00,,0819.4,5.00,0.00,22.6,21.9,00.0,31.6,24.3,08.5,0000.0,0009.31,0003.49,0002.52
2021-12-12 13:58:00,,0819.4,5.00,0.00,22.6,21.9,00.0,31.6,24.3,08.5,0000.0,0009.29,0003.55,0002.59
2021-12-12 13:59:00,,0819.4,4.99,0.00,22.6,21.9,00.0,31.6,24.4,08.8,0000.0,0009.10,0003.56,0002.60
